Location: Bergnerzell
(49.1816°N, 10.2565°E)
Time: 03:51:08
(UTC+00:00)

SAR-Lupe-4 - Pass Details

Date: 23 May 2024
Orbit: 476 x 482 km, 98.1° (Epoch: 02 April)

Event Time Altitude Azimuth Distance (km) Brightness Sun altitude
Rises 02:09:12 0° 15° (NNE) 2,554 8.5 -10.2°
Reaches altitude 10° 02:11:17 10° 17° (NNE) 1,669 7.5 -10.0°
Maximum altitude 02:14:52 76° 103° (ESE) 502 3.7 -9.6°
Drops below altitude 10° 02:18:25 10° 190° (S) 1,654 5.8 -9.2°
Enters shadow 02:18:38 - 190° (S) 1,746 5.9 -9.2°
